Location: Newark
(55.4390°N, 25.0170°E)
Time: 12:38:18
(UTC+00:00)

X-37B - Visible Passes

Search period start: 08 March 2021 00:00
Search period end: 18 March 2021 00:00
Orbit: 383 x 391 km, 45.0° (Epoch: 27 February)

Date Brightness Start Highest point End Pass type
(mag) Time Alt. Az. Time Alt. Az. Time Alt. Az.
14 Mar 3.1 18:03:51 10° S 18:04:28 11° S 18:04:28 11° S visible
15 Mar 3.3 18:40:55 10° SSW 18:41:10 11° SSW 18:41:10 11° SSW visible
16 Mar 2.9 17:42:58 10° SSW 17:44:30 13° S 17:45:31 11° SSE visible
17 Mar 3.0 18:20:35 10° SW 18:22:08 13° S 18:22:08 13° S visible
